Year,Month,Day,Hour,Minute,Value (Times are PST for windspeed in km/hr)
2020,11,30,00,00,0.00
2020,11,30,00,01,0.10
2020,11,30,00,02,0.00
2020,11,30,00,03,0.00
2020,11,30,00,04,0.00
2020,11,30,00,05,1.20
2020,11,30,00,06,0.10
2020,11,30,00,07,0.00
2020,11,30,00,08,0.00
2020,11,30,00,09,0.00
2020,11,30,00,10,1.10
2020,11,30,00,11,3.40
2020,11,30,00,12,0.10
2020,11,30,00,13,0.10
2020,11,30,00,14,0.80
2020,11,30,00,15,0.60
2020,11,30,00,16,1.20
2020,11,30,00,17,0.00
2020,11,30,00,18,0.20
2020,11,30,00,19,1.40
2020,11,30,00,20,0.00
2020,11,30,00,21,0.50
2020,11,30,00,22,0.10
2020,11,30,00,23,0.30
2020,11,30,00,24,0.10
2020,11,30,00,25,0.10
2020,11,30,00,26,0.00
2020,11,30,00,27,0.00
2020,11,30,00,28,0.00
2020,11,30,00,29,0.00
2020,11,30,00,30,0.00
2020,11,30,00,31,0.60
2020,11,30,00,32,2.90
2020,11,30,00,33,0.90
2020,11,30,00,34,0.00
2020,11,30,00,35,0.00
2020,11,30,00,36,1.40
2020,11,30,00,37,0.00
2020,11,30,00,38,0.00
2020,11,30,00,39,0.00
2020,11,30,00,40,0.80
2020,11,30,00,41,4.30
2020,11,30,00,42,3.30
2020,11,30,00,43,0.00
2020,11,30,00,44,0.00
2020,11,30,00,45,0.00
2020,11,30,00,46,0.10
2020,11,30,00,47,2.90
2020,11,30,00,48,2.70
2020,11,30,00,49,0.20
2020,11,30,00,50,0.10
2020,11,30,00,51,0.90
2020,11,30,00,52,0.00
2020,11,30,00,53,0.00
2020,11,30,00,54,0.40
2020,11,30,00,55,0.10
2020,11,30,00,56,0.30
2020,11,30,00,57,0.00
2020,11,30,00,58,0.90
2020,11,30,00,59,0.60
2020,11,30,01,00,2.00
2020,11,30,01,01,2.10
2020,11,30,01,02,0.50
2020,11,30,01,03,0.10
2020,11,30,01,04,1.70
2020,11,30,01,05,3.60
2020,11,30,01,06,2.80
2020,11,30,01,07,2.20
2020,11,30,01,08,0.00
2020,11,30,01,09,0.00
2020,11,30,01,10,0.10
2020,11,30,01,11,0.90
2020,11,30,01,12,1.10
2020,11,30,01,13,2.40
2020,11,30,01,14,0.90
2020,11,30,01,15,0.00
2020,11,30,01,16,0.00
2020,11,30,01,17,0.00
2020,11,30,01,18,0.00
2020,11,30,01,19,0.30
2020,11,30,01,20,0.70
2020,11,30,01,21,1.10
2020,11,30,01,22,0.70
2020,11,30,01,23,2.90
2020,11,30,01,24,2.30
2020,11,30,01,25,2.40
2020,11,30,01,26,4.70
2020,11,30,01,27,2.80
2020,11,30,01,28,4.10
2020,11,30,01,29,2.70
2020,11,30,01,30,3.20
2020,11,30,01,31,2.20
2020,11,30,01,32,1.40
2020,11,30,01,33,1.70
2020,11,30,01,34,0.60
2020,11,30,01,35,0.00
2020,11,30,01,36,4.30
2020,11,30,01,37,1.10
2020,11,30,01,38,1.50
2020,11,30,01,39,3.30
2020,11,30,01,40,1.80
2020,11,30,01,41,4.90
2020,11,30,01,42,1.20
2020,11,30,01,43,0.60
2020,11,30,01,44,0.80
2020,11,30,01,45,3.10
2020,11,30,01,46,1.30
2020,11,30,01,47,2.70
2020,11,30,01,48,0.70
2020,11,30,01,49,0.60
2020,11,30,01,50,3.30
2020,11,30,01,51,3.80
2020,11,30,01,52,2.10
2020,11,30,01,53,3.80
2020,11,30,01,54,1.20
2020,11,30,01,55,3.70
2020,11,30,01,56,1.80
2020,11,30,01,57,3.00
2020,11,30,01,58,2.70
2020,11,30,01,59,2.00
2020,11,30,02,00,3.80
2020,11,30,02,01,2.40
2020,11,30,02,02,2.20
2020,11,30,02,03,1.50
2020,11,30,02,04,0.10
2020,11,30,02,05,0.00
2020,11,30,02,06,0.90
2020,11,30,02,07,0.20
2020,11,30,02,08,1.40
2020,11,30,02,09,2.30
2020,11,30,02,10,2.70
2020,11,30,02,11,3.00
2020,11,30,02,12,0.00
2020,11,30,02,13,1.00
2020,11,30,02,14,0.00
2020,11,30,02,15,0.00
2020,11,30,02,16,0.00
2020,11,30,02,17,0.10
2020,11,30,02,18,0.00
2020,11,30,02,19,0.00
2020,11,30,02,20,0.30
2020,11,30,02,21,0.20
2020,11,30,02,22,1.90
2020,11,30,02,23,1.60
2020,11,30,02,24,1.20
2020,11,30,02,25,1.10
2020,11,30,02,26,1.70
2020,11,30,02,27,3.00
2020,11,30,02,28,2.50
2020,11,30,02,29,2.50
2020,11,30,02,30,3.20
2020,11,30,02,31,2.50
2020,11,30,02,32,1.70
2020,11,30,02,33,1.40
2020,11,30,02,34,0.90
2020,11,30,02,35,1.80
2020,11,30,02,36,5.00
2020,11,30,02,37,4.20
2020,11,30,02,38,4.30
2020,11,30,02,39,4.80
2020,11,30,02,40,6.20
2020,11,30,02,41,6.10
2020,11,30,02,42,4.20
2020,11,30,02,43,4.30
2020,11,30,02,44,3.30
2020,11,30,02,45,3.70
2020,11,30,02,46,1.80
2020,11,30,02,47,6.10
2020,11,30,02,48,5.90
2020,11,30,02,49,2.20
2020,11,30,02,50,0.30
2020,11,30,02,51,0.00
2020,11,30,02,52,0.20
2020,11,30,02,53,0.30
2020,11,30,02,54,0.00
2020,11,30,02,55,0.00
2020,11,30,02,56,0.00
2020,11,30,02,57,0.00
2020,11,30,02,58,0.00
2020,11,30,02,59,0.00
2020,11,30,03,00,0.00
2020,11,30,03,01,0.00
2020,11,30,03,02,0.00
2020,11,30,03,03,0.00
2020,11,30,03,04,0.00
2020,11,30,03,05,0.00
2020,11,30,03,06,0.00
2020,11,30,03,07,0.00
2020,11,30,03,08,0.00
2020,11,30,03,09,0.00
2020,11,30,03,10,0.00
2020,11,30,03,11,1.90
2020,11,30,03,12,2.00
2020,11,30,03,13,0.90
2020,11,30,03,14,1.80
2020,11,30,03,15,3.20
2020,11,30,03,16,1.40
2020,11,30,03,17,1.00
2020,11,30,03,18,1.10
2020,11,30,03,19,0.30
2020,11,30,03,20,0.80
2020,11,30,03,21,1.80
2020,11,30,03,22,1.70
2020,11,30,03,23,1.20
2020,11,30,03,24,1.70
2020,11,30,03,25,1.40
2020,11,30,03,26,1.80
2020,11,30,03,27,3.40
2020,11,30,03,28,1.90
2020,11,30,03,29,1.80
2020,11,30,03,30,2.80
2020,11,30,03,31,2.70
2020,11,30,03,32,3.80
2020,11,30,03,33,2.80
2020,11,30,03,34,3.00
2020,11,30,03,35,4.70
2020,11,30,03,36,2.10
2020,11,30,03,37,2.70
2020,11,30,03,38,2.00
2020,11,30,03,39,0.80
2020,11,30,03,40,0.80
2020,11,30,03,41,1.40
2020,11,30,03,42,2.20
2020,11,30,03,43,3.30
2020,11,30,03,44,0.30
2020,11,30,03,45,0.20
2020,11,30,03,46,0.80
2020,11,30,03,47,0.30
2020,11,30,03,48,1.20
2020,11,30,03,49,1.00
2020,11,30,03,50,0.00
2020,11,30,03,51,0.00
2020,11,30,03,52,1.20
2020,11,30,03,53,0.00
2020,11,30,03,54,1.20
2020,11,30,03,55,0.70
2020,11,30,03,56,1.60
2020,11,30,03,57,0.80
2020,11,30,03,58,0.20
2020,11,30,03,59,0.00
2020,11,30,04,00,0.00
2020,11,30,04,01,0.00
2020,11,30,04,02,0.00
2020,11,30,04,03,0.00
2020,11,30,04,04,0.00
2020,11,30,04,05,0.00
2020,11,30,04,06,0.00
2020,11,30,04,07,0.00
2020,11,30,04,08,0.00
2020,11,30,04,09,0.00
2020,11,30,04,10,0.00
2020,11,30,04,11,0.00
2020,11,30,04,12,0.00
2020,11,30,04,13,0.60
2020,11,30,04,14,0.50
2020,11,30,04,15,0.00
2020,11,30,04,16,0.00
2020,11,30,04,17,0.00
2020,11,30,04,18,0.00
2020,11,30,04,19,0.00
2020,11,30,04,20,0.00
2020,11,30,04,21,0.00
2020,11,30,04,22,0.00
2020,11,30,04,23,0.00
2020,11,30,04,24,0.00
2020,11,30,04,25,0.00
2020,11,30,04,26,0.00
2020,11,30,04,27,0.00
2020,11,30,04,28,0.00
2020,11,30,04,29,0.00
2020,11,30,04,30,0.00
2020,11,30,04,31,0.00
2020,11,30,04,32,0.00
2020,11,30,04,33,0.00
2020,11,30,04,34,0.00
2020,11,30,04,35,1.00
2020,11,30,04,36,0.00
2020,11,30,04,37,0.00
2020,11,30,04,38,0.40
2020,11,30,04,39,0.90
2020,11,30,04,40,0.40
2020,11,30,04,41,0.00
2020,11,30,04,42,1.40
2020,11,30,04,43,4.20
2020,11,30,04,44,0.90
2020,11,30,04,45,0.90
2020,11,30,04,46,2.50
2020,11,30,04,47,3.60
2020,11,30,04,48,2.40
2020,11,30,04,49,3.30
2020,11,30,04,50,3.20
2020,11,30,04,51,2.50
2020,11,30,04,52,1.20
2020,11,30,04,53,2.20
2020,11,30,04,54,2.80
2020,11,30,04,55,0.50
2020,11,30,04,56,1.90
2020,11,30,04,57,1.10
2020,11,30,04,58,4.20
2020,11,30,04,59,2.90
2020,11,30,05,00,4.20
2020,11,30,05,01,1.90
2020,11,30,05,02,3.20
2020,11,30,05,03,2.90
2020,11,30,05,04,3.00
2020,11,30,05,05,4.10
2020,11,30,05,06,5.20
2020,11,30,05,07,4.20
2020,11,30,05,08,2.80
2020,11,30,05,09,5.70
2020,11,30,05,10,3.20
2020,11,30,05,11,5.50
2020,11,30,05,12,5.80
2020,11,30,05,13,3.50
2020,11,30,05,14,4.20
2020,11,30,05,15,3.80
2020,11,30,05,16,3.50
2020,11,30,05,17,2.70
2020,11,30,05,18,3.10
2020,11,30,05,19,4.10
2020,11,30,05,20,2.50
2020,11,30,05,21,1.30
2020,11,30,05,22,1.80
2020,11,30,05,23,2.30
2020,11,30,05,24,3.50
2020,11,30,05,25,5.50
2020,11,30,05,26,5.70
2020,11,30,05,27,5.10
2020,11,30,05,28,5.60
2020,11,30,05,29,3.40
2020,11,30,05,30,7.10
2020,11,30,05,31,6.60
2020,11,30,05,32,5.60
2020,11,30,05,33,4.00
2020,11,30,05,34,3.90
2020,11,30,05,35,5.10
2020,11,30,05,36,5.60
2020,11,30,05,37,6.20
2020,11,30,05,38,5.90
2020,11,30,05,39,6.10
2020,11,30,05,40,5.80
2020,11,30,05,41,4.60
2020,11,30,05,42,5.10
2020,11,30,05,43,4.60
2020,11,30,05,44,3.90
2020,11,30,05,45,2.80
2020,11,30,05,46,4.70
2020,11,30,05,47,2.90
2020,11,30,05,48,2.40
2020,11,30,05,49,4.70
2020,11,30,05,50,3.40
2020,11,30,05,51,4.70
2020,11,30,05,52,5.40
2020,11,30,05,53,4.10
2020,11,30,05,54,4.80
2020,11,30,05,55,7.80
2020,11,30,05,56,2.30
2020,11,30,05,57,2.90
2020,11,30,05,58,3.00
2020,11,30,05,59,4.60
2020,11,30,06,00,5.70
2020,11,30,06,01,3.70
2020,11,30,06,02,4.80
2020,11,30,06,03,4.50
2020,11,30,06,04,5.20
2020,11,30,06,05,4.50
2020,11,30,06,06,5.20
2020,11,30,06,07,2.60
2020,11,30,06,08,2.00
2020,11,30,06,09,3.90
2020,11,30,06,10,3.00
2020,11,30,06,11,2.50
2020,11,30,06,12,3.00
2020,11,30,06,13,3.50
2020,11,30,06,14,0.30
2020,11,30,06,15,3.20
2020,11,30,06,16,3.40
2020,11,30,06,17,2.00
2020,11,30,06,18,1.40
2020,11,30,06,19,0.30
2020,11,30,06,20,0.30
2020,11,30,06,21,3.60
2020,11,30,06,22,2.80
2020,11,30,06,23,4.70
2020,11,30,06,24,2.60
2020,11,30,06,25,2.00
2020,11,30,06,26,2.90
2020,11,30,06,27,2.20
2020,11,30,06,28,0.00
2020,11,30,06,29,3.80
2020,11,30,06,30,0.60
2020,11,30,06,31,4.20
2020,11,30,06,32,5.40
2020,11,30,06,33,5.80
2020,11,30,06,34,5.50
2020,11,30,06,35,5.00
2020,11,30,06,36,5.60
2020,11,30,06,37,6.70
2020,11,30,06,38,6.20
2020,11,30,06,39,8.20
2020,11,30,06,40,12.80
2020,11,30,06,41,13.00
2020,11,30,06,42,31.10
2020,11,30,06,43,28.20
2020,11,30,06,44,14.70
2020,11,30,06,45,14.70
2020,11,30,06,46,15.20
2020,11,30,06,47,15.30
2020,11,30,06,48,17.20
2020,11,30,06,49,14.80
2020,11,30,06,50,16.80
2020,11,30,06,51,19.60
2020,11,30,06,52,16.80
2020,11,30,06,53,20.70
2020,11,30,06,54,17.10
2020,11,30,06,55,22.50
2020,11,30,06,56,24.70
2020,11,30,06,57,21.80
2020,11,30,06,58,19.50
2020,11,30,06,59,35.70
2020,11,30,07,00,24.40
2020,11,30,07,01,19.70
2020,11,30,07,02,28.40
2020,11,30,07,03,22.40
2020,11,30,07,04,26.20
2020,11,30,07,05,19.90
2020,11,30,07,06,26.50
2020,11,30,07,07,27.40
2020,11,30,07,08,24.70
2020,11,30,07,09,27.20
2020,11,30,07,10,26.00
2020,11,30,07,11,22.90
2020,11,30,07,12,28.60
2020,11,30,07,13,24.90
2020,11,30,07,14,29.00
2020,11,30,07,15,28.90
2020,11,30,07,16,31.70
2020,11,30,07,17,27.90
2020,11,30,07,18,27.00
2020,11,30,07,19,22.40
2020,11,30,07,20,34.00
2020,11,30,07,21,29.80
2020,11,30,07,22,26.00
2020,11,30,07,23,25.50
2020,11,30,07,24,23.70
2020,11,30,07,25,23.50
2020,11,30,07,26,20.50
2020,11,30,07,27,14.80
2020,11,30,07,28,19.80
2020,11,30,07,29,14.90
2020,11,30,07,30,14.80
2020,11,30,07,31,15.30
2020,11,30,07,32,27.10
2020,11,30,07,33,28.60
2020,11,30,07,34,25.40
2020,11,30,07,35,29.90
2020,11,30,07,36,17.30
2020,11,30,07,37,25.60
2020,11,30,07,38,27.00
2020,11,30,07,39,27.60
2020,11,30,07,40,32.90
2020,11,30,07,41,34.80
2020,11,30,07,42,28.40
2020,11,30,07,43,31.80
2020,11,30,07,44,27.70
2020,11,30,07,45,25.90
2020,11,30,07,46,23.40
2020,11,30,07,47,24.20
2020,11,30,07,48,22.40
2020,11,30,07,49,20.90
2020,11,30,07,50,20.80
2020,11,30,07,51,29.70
2020,11,30,07,52,39.50
2020,11,30,07,53,31.40
2020,11,30,07,54,20.10
2020,11,30,07,55,21.90
2020,11,30,07,56,25.60
2020,11,30,07,57,39.20
2020,11,30,07,58,30.50
2020,11,30,07,59,29.10
2020,11,30,08,00,23.40
2020,11,30,08,01,31.20
2020,11,30,08,02,22.20
2020,11,30,08,03,22.50
2020,11,30,08,04,32.90
2020,11,30,08,05,33.10
2020,11,30,08,06,26.40
2020,11,30,08,07,17.40
2020,11,30,08,08,19.50
2020,11,30,08,09,22.20
2020,11,30,08,10,36.00
2020,11,30,08,11,29.10
2020,11,30,08,12,18.40
2020,11,30,08,13,32.50
2020,11,30,08,14,30.60
2020,11,30,08,15,35.30
2020,11,30,08,16,30.40
2020,11,30,08,17,21.90
2020,11,30,08,18,21.00
2020,11,30,08,19,18.10
2020,11,30,08,20,25.40
2020,11,30,08,21,31.70
2020,11,30,08,22,33.60
2020,11,30,08,23,29.90
2020,11,30,08,24,32.80
2020,11,30,08,25,42.70
2020,11,30,08,26,43.20
2020,11,30,08,27,47.50
2020,11,30,08,28,30.50
2020,11,30,08,29,36.70
2020,11,30,08,30,32.00
2020,11,30,08,31,31.70
2020,11,30,08,32,38.00
2020,11,30,08,33,36.40
2020,11,30,08,34,48.70
2020,11,30,08,35,44.50
2020,11,30,08,36,46.70
2020,11,30,08,37,41.70
2020,11,30,08,38,47.90
2020,11,30,08,39,43.50
2020,11,30,08,40,41.10
2020,11,30,08,41,34.80
2020,11,30,08,42,45.70
2020,11,30,08,43,33.00
2020,11,30,08,44,41.10
2020,11,30,08,45,37.70
2020,11,30,08,46,55.30
2020,11,30,08,47,35.20
2020,11,30,08,48,36.00
2020,11,30,08,49,39.60
2020,11,30,08,50,35.60
2020,11,30,08,51,31.20
2020,11,30,08,52,27.10
2020,11,30,08,53,38.50
2020,11,30,08,54,39.30
2020,11,30,08,55,32.70
2020,11,30,08,56,37.50
2020,11,30,08,57,27.80
2020,11,30,08,58,21.00
2020,11,30,08,59,31.70
2020,11,30,09,00,22.70
2020,11,30,09,01,27.90
2020,11,30,09,02,32.40
2020,11,30,09,03,32.50
2020,11,30,09,04,35.30
2020,11,30,09,05,38.20
2020,11,30,09,06,24.90
2020,11,30,09,07,37.60
2020,11,30,09,08,33.60
2020,11,30,09,09,25.50
2020,11,30,09,10,30.60
2020,11,30,09,11,26.90
2020,11,30,09,12,35.70
2020,11,30,09,13,21.50
2020,11,30,09,14,19.50
2020,11,30,09,15,16.70
2020,11,30,09,16,10.70
2020,11,30,09,17,18.80
2020,11,30,09,18,24.50
2020,11,30,09,19,17.00
2020,11,30,09,20,14.20
2020,11,30,09,21,16.60
2020,11,30,09,22,18.90
2020,11,30,09,23,19.80
2020,11,30,09,24,14.00
2020,11,30,09,25,11.70
2020,11,30,09,26,15.30
2020,11,30,09,27,13.40
2020,11,30,09,28,13.40
2020,11,30,09,29,16.10
2020,11,30,09,30,15.20
2020,11,30,09,31,11.80
2020,11,30,09,32,8.20
2020,11,30,09,33,7.80
2020,11,30,09,34,16.40
2020,11,30,09,35,15.10
2020,11,30,09,36,19.60
2020,11,30,09,37,17.50
2020,11,30,09,38,17.60
2020,11,30,09,39,26.60
2020,11,30,09,40,24.50
2020,11,30,09,41,20.10
2020,11,30,09,42,18.30
2020,11,30,09,43,20.00
2020,11,30,09,44,22.40
2020,11,30,09,45,25.20
2020,11,30,09,46,20.20
2020,11,30,09,47,17.20
2020,11,30,09,48,17.80
2020,11,30,09,49,19.10
2020,11,30,09,50,17.60
2020,11,30,09,51,21.30
2020,11,30,09,52,23.40
2020,11,30,09,53,25.50
2020,11,30,09,54,25.50
2020,11,30,09,55,19.30
2020,11,30,09,56,30.20
2020,11,30,09,57,23.00
2020,11,30,09,58,18.70
2020,11,30,09,59,17.40
2020,11,30,10,00,19.30
2020,11,30,10,01,22.30
2020,11,30,10,02,22.50
2020,11,30,10,03,28.60
2020,11,30,10,04,20.00
2020,11,30,10,05,25.80
2020,11,30,10,06,18.80
2020,11,30,10,07,21.90
2020,11,30,10,08,19.60
2020,11,30,10,09,16.40
2020,11,30,10,10,15.50
2020,11,30,10,11,18.80
2020,11,30,10,12,15.70
2020,11,30,10,13,17.10
2020,11,30,10,14,22.10
2020,11,30,10,15,25.10
2020,11,30,10,16,13.30
2020,11,30,10,17,12.20
2020,11,30,10,18,15.70
2020,11,30,10,19,15.20
2020,11,30,10,20,21.40
2020,11,30,10,21,24.20
2020,11,30,10,22,22.40
2020,11,30,10,23,19.50
2020,11,30,10,24,16.50
2020,11,30,10,25,18.40
2020,11,30,10,26,17.90
2020,11,30,10,27,18.10
2020,11,30,10,28,23.50
2020,11,30,10,29,19.30
2020,11,30,10,30,27.00
2020,11,30,10,31,27.60
2020,11,30,10,32,23.20
2020,11,30,10,33,32.30
2020,11,30,10,34,23.30
2020,11,30,10,35,29.40
2020,11,30,10,36,35.90
2020,11,30,10,37,22.50
2020,11,30,10,38,25.20
2020,11,30,10,39,27.90
2020,11,30,10,40,30.10
2020,11,30,10,41,28.50
2020,11,30,10,42,23.00
2020,11,30,10,43,32.00
2020,11,30,10,44,25.10
2020,11,30,10,45,23.80
2020,11,30,10,46,27.00
2020,11,30,10,47,28.30
2020,11,30,10,48,27.40
2020,11,30,10,49,32.50
2020,11,30,10,50,39.90
2020,11,30,10,51,37.20
2020,11,30,10,52,28.00
2020,11,30,10,53,25.70
2020,11,30,10,54,28.00
2020,11,30,10,55,25.80
2020,11,30,10,56,21.40
2020,11,30,10,57,22.90
2020,11,30,10,58,20.40
2020,11,30,10,59,18.80
2020,11,30,11,00,17.80
2020,11,30,11,01,18.40
2020,11,30,11,02,29.50
2020,11,30,11,03,38.00
2020,11,30,11,04,29.70
2020,11,30,11,05,23.00
2020,11,30,11,06,21.50
2020,11,30,11,07,20.50
2020,11,30,11,08,25.50
2020,11,30,11,09,21.60
2020,11,30,11,10,17.90
2020,11,30,11,11,41.10
2020,11,30,11,12,34.90
2020,11,30,11,13,20.50
2020,11,30,11,14,21.60
2020,11,30,11,15,17.90
2020,11,30,11,16,17.10
2020,11,30,11,17,19.50
2020,11,30,11,18,22.20
2020,11,30,11,19,15.60
2020,11,30,11,20,13.80
2020,11,30,11,21,13.20
2020,11,30,11,22,20.60
2020,11,30,11,23,19.00
2020,11,30,11,24,11.70
2020,11,30,11,25,20.30
2020,11,30,11,26,23.20
2020,11,30,11,27,21.50
2020,11,30,11,28,25.50
2020,11,30,11,29,21.80
2020,11,30,11,30,20.10
2020,11,30,11,31,23.00
2020,11,30,11,32,21.50
2020,11,30,11,33,26.80
2020,11,30,11,34,18.50
2020,11,30,11,35,15.30
2020,11,30,11,36,16.40
2020,11,30,11,37,14.90
2020,11,30,11,38,15.10
2020,11,30,11,39,28.50
2020,11,30,11,40,21.60
2020,11,30,11,41,19.90
2020,11,30,11,42,18.50
2020,11,30,11,43,18.60
2020,11,30,11,44,25.20
2020,11,30,11,45,20.10
2020,11,30,11,46,26.40
2020,11,30,11,47,19.80
2020,11,30,11,48,21.20
2020,11,30,11,49,13.90
2020,11,30,11,50,15.10
2020,11,30,11,51,20.00
2020,11,30,11,52,21.40
2020,11,30,11,53,25.40
2020,11,30,11,54,22.70
2020,11,30,11,55,30.80
2020,11,30,11,56,17.00
2020,11,30,11,57,14.50
2020,11,30,11,58,16.50
2020,11,30,11,59,34.30
2020,11,30,12,00,23.50
2020,11,30,12,01,19.80
2020,11,30,12,02,24.50
2020,11,30,12,03,26.80
2020,11,30,12,04,24.10
2020,11,30,12,05,21.40
2020,11,30,12,06,18.10
2020,11,30,12,07,16.90
2020,11,30,12,08,18.50
2020,11,30,12,09,18.70
2020,11,30,12,10,22.50
2020,11,30,12,11,22.20
2020,11,30,12,12,36.20
2020,11,30,12,13,27.00
2020,11,30,12,14,24.90
2020,11,30,12,15,20.50
2020,11,30,12,16,28.00
2020,11,30,12,17,24.30
2020,11,30,12,18,27.50
2020,11,30,12,19,24.10
2020,11,30,12,20,25.60
2020,11,30,12,21,22.30
2020,11,30,12,22,23.30
2020,11,30,12,23,23.90
2020,11,30,12,24,21.70
2020,11,30,12,25,25.60
2020,11,30,12,26,28.30
2020,11,30,12,27,31.90
2020,11,30,12,28,24.70
2020,11,30,12,29,25.00
2020,11,30,12,30,20.80
2020,11,30,12,31,22.60
2020,11,30,12,32,17.70
2020,11,30,12,33,19.00
2020,11,30,12,34,13.30
2020,11,30,12,35,10.60
2020,11,30,12,36,11.70
2020,11,30,12,37,11.30
2020,11,30,12,38,6.80
2020,11,30,12,39,9.40
2020,11,30,12,40,7.10
2020,11,30,12,41,12.50
2020,11,30,12,42,12.00
2020,11,30,12,43,13.20
2020,11,30,12,44,13.10
2020,11,30,12,45,8.60
2020,11,30,12,46,14.40
2020,11,30,12,47,8.40
2020,11,30,12,48,15.40
2020,11,30,12,49,21.10
2020,11,30,12,50,14.10
2020,11,30,12,51,11.40
2020,11,30,12,52,11.80
2020,11,30,12,53,18.30
2020,11,30,12,54,8.80
2020,11,30,12,55,20.60
2020,11,30,12,56,30.00
2020,11,30,12,57,20.10
2020,11,30,12,58,24.30
2020,11,30,12,59,14.00
2020,11,30,13,00,14.60
2020,11,30,13,01,16.40
2020,11,30,13,02,12.70
2020,11,30,13,03,20.70
2020,11,30,13,04,19.00
2020,11,30,13,05,16.90
2020,11,30,13,06,10.40
2020,11,30,13,07,18.90
2020,11,30,13,08,23.70
2020,11,30,13,09,23.50
2020,11,30,13,10,15.20
2020,11,30,13,11,15.50
2020,11,30,13,12,24.80
2020,11,30,13,13,13.80
2020,11,30,13,14,21.80
2020,11,30,13,15,19.30
2020,11,30,13,16,26.30
2020,11,30,13,17,34.10
2020,11,30,13,18,19.40
2020,11,30,13,19,20.70
2020,11,30,13,20,16.10
2020,11,30,13,21,26.90
2020,11,30,13,22,21.90
2020,11,30,13,23,17.10
2020,11,30,13,24,21.40
2020,11,30,13,25,28.80
2020,11,30,13,26,29.80
2020,11,30,13,27,21.70
2020,11,30,13,28,21.10
2020,11,30,13,29,26.30
2020,11,30,13,30,30.10
2020,11,30,13,31,28.20
2020,11,30,13,32,33.90
2020,11,30,13,33,32.20
2020,11,30,13,34,22.50
2020,11,30,13,35,23.20
2020,11,30,13,36,31.10
2020,11,30,13,37,38.20
2020,11,30,13,38,27.90
2020,11,30,13,39,29.30
2020,11,30,13,40,27.10
2020,11,30,13,41,32.90
2020,11,30,13,42,25.80
2020,11,30,13,43,27.00
2020,11,30,13,44,32.70
2020,11,30,13,45,33.80
2020,11,30,13,46,30.80
2020,11,30,13,47,25.40
2020,11,30,13,48,25.30
2020,11,30,13,49,25.50
2020,11,30,13,50,29.40
2020,11,30,13,51,34.90
2020,11,30,13,52,24.00
2020,11,30,13,53,23.70
2020,11,30,13,54,39.50
2020,11,30,13,55,27.80
2020,11,30,13,56,27.50
2020,11,30,13,57,21.30
2020,11,30,13,58,22.60
2020,11,30,13,59,24.00
2020,11,30,14,00,37.00
2020,11,30,14,01,28.20
2020,11,30,14,02,34.80
2020,11,30,14,03,28.60
2020,11,30,14,04,27.90
2020,11,30,14,05,36.20
2020,11,30,14,06,37.00
2020,11,30,14,07,19.70
2020,11,30,14,08,20.40
2020,11,30,14,09,16.40
2020,11,30,14,10,23.50
2020,11,30,14,11,35.80
2020,11,30,14,12,30.20
2020,11,30,14,13,26.60
2020,11,30,14,14,25.20
2020,11,30,14,15,32.00
2020,11,30,14,16,21.90
2020,11,30,14,17,21.10
2020,11,30,14,18,28.70
2020,11,30,14,19,19.90
2020,11,30,14,20,22.60
2020,11,30,14,21,28.90
2020,11,30,14,22,28.60
2020,11,30,14,23,20.60
2020,11,30,14,24,28.90
2020,11,30,14,25,31.70
2020,11,30,14,26,32.30
2020,11,30,14,27,31.50
2020,11,30,14,28,21.70
2020,11,30,14,29,25.20
2020,11,30,14,30,20.80
2020,11,30,14,31,26.90
2020,11,30,14,32,26.30
2020,11,30,14,33,19.70
2020,11,30,14,34,17.60
2020,11,30,14,35,26.70
2020,11,30,14,36,22.90
2020,11,30,14,37,25.20
2020,11,30,14,38,22.00
2020,11,30,14,39,22.50
2020,11,30,14,40,18.60
2020,11,30,14,41,20.10
2020,11,30,14,42,20.90
2020,11,30,14,43,16.10
2020,11,30,14,44,18.50
2020,11,30,14,45,9.70
2020,11,30,14,46,10.30
2020,11,30,14,47,9.40
2020,11,30,14,48,7.00
2020,11,30,14,49,9.70
2020,11,30,14,50,18.20
2020,11,30,14,51,15.50
2020,11,30,14,52,12.00
2020,11,30,14,53,14.60
2020,11,30,14,54,16.70
2020,11,30,14,55,17.70
2020,11,30,14,56,12.40
2020,11,30,14,57,20.10
2020,11,30,14,58,12.70
2020,11,30,14,59,18.60
2020,11,30,15,00,21.10
2020,11,30,15,01,15.80
2020,11,30,15,02,6.80
2020,11,30,15,03,18.40
2020,11,30,15,04,18.80
2020,11,30,15,05,25.10
2020,11,30,15,06,15.60
2020,11,30,15,07,17.70
2020,11,30,15,08,17.10
2020,11,30,15,09,10.60
2020,11,30,15,10,20.00
2020,11,30,15,11,21.40
2020,11,30,15,12,17.30
2020,11,30,15,13,16.30
2020,11,30,15,14,15.70
2020,11,30,15,15,14.70
2020,11,30,15,16,11.80
2020,11,30,15,17,7.40
2020,11,30,15,18,10.60
2020,11,30,15,19,15.50
2020,11,30,15,20,14.90
2020,11,30,15,21,17.80
2020,11,30,15,22,17.60
2020,11,30,15,23,23.90
2020,11,30,15,24,22.80
2020,11,30,15,25,20.80
2020,11,30,15,26,17.60
2020,11,30,15,27,16.30
2020,11,30,15,28,16.50
2020,11,30,15,29,19.90
2020,11,30,15,30,11.70
2020,11,30,15,31,14.20
2020,11,30,15,32,11.80
2020,11,30,15,33,20.90
2020,11,30,15,34,22.20
2020,11,30,15,35,8.80
2020,11,30,15,36,6.80
2020,11,30,15,37,14.00
2020,11,30,15,38,12.10
2020,11,30,15,39,10.50
2020,11,30,15,40,15.60
2020,11,30,15,41,20.10
2020,11,30,15,42,10.50
2020,11,30,15,43,8.70
2020,11,30,15,44,15.60
2020,11,30,15,45,15.30
2020,11,30,15,46,11.80
2020,11,30,15,47,19.30
2020,11,30,15,48,20.90
2020,11,30,15,49,18.90
2020,11,30,15,50,20.80
2020,11,30,15,51,11.00
2020,11,30,15,52,16.00
2020,11,30,15,53,13.40
2020,11,30,15,54,14.10
2020,11,30,15,55,11.10
2020,11,30,15,56,12.30
2020,11,30,15,57,13.20
2020,11,30,15,58,15.70
2020,11,30,15,59,4.70
2020,11,30,16,00,11.70
2020,11,30,16,01,7.20
2020,11,30,16,02,12.80
2020,11,30,16,03,20.60
2020,11,30,16,04,10.40
2020,11,30,16,05,5.60
2020,11,30,16,06,9.40
2020,11,30,16,07,4.60
2020,11,30,16,08,15.30
2020,11,30,16,09,8.00
2020,11,30,16,10,1.30
2020,11,30,16,11,6.90
2020,11,30,16,12,9.40
2020,11,30,16,13,8.80
2020,11,30,16,14,8.60
2020,11,30,16,15,14.70
2020,11,30,16,16,24.70
2020,11,30,16,17,17.10
2020,11,30,16,18,11.30
2020,11,30,16,19,7.70
2020,11,30,16,20,9.40
2020,11,30,16,21,8.90
2020,11,30,16,22,7.70
2020,11,30,16,23,7.30
2020,11,30,16,24,12.40
2020,11,30,16,25,24.70
2020,11,30,16,26,14.50
2020,11,30,16,27,16.20
2020,11,30,16,28,7.30
2020,11,30,16,29,19.30
2020,11,30,16,30,16.70
2020,11,30,16,31,18.00
2020,11,30,16,32,19.30
2020,11,30,16,33,8.40
2020,11,30,16,34,13.40
2020,11,30,16,35,16.20
2020,11,30,16,36,16.10
2020,11,30,16,37,12.40
2020,11,30,16,38,19.50
2020,11,30,16,39,15.50
2020,11,30,16,40,15.80
2020,11,30,16,41,13.20
2020,11,30,16,42,8.40
2020,11,30,16,43,16.70
2020,11,30,16,44,11.70
2020,11,30,16,45,8.80
2020,11,30,16,46,8.70
2020,11,30,16,47,11.10
2020,11,30,16,48,14.50
2020,11,30,16,49,8.50
2020,11,30,16,50,8.40
2020,11,30,16,51,11.60
2020,11,30,16,52,9.80
2020,11,30,16,53,15.50
2020,11,30,16,54,8.40
2020,11,30,16,55,8.10
2020,11,30,16,56,13.30
2020,11,30,16,57,6.40
2020,11,30,16,58,6.90
2020,11,30,16,59,4.00
2020,11,30,17,00,13.40
2020,11,30,17,01,4.30
2020,11,30,17,02,6.20
2020,11,30,17,03,6.20
2020,11,30,17,04,7.50
2020,11,30,17,05,4.90
2020,11,30,17,06,5.10
2020,11,30,17,07,6.80
2020,11,30,17,08,4.80
2020,11,30,17,09,9.50
2020,11,30,17,10,13.70
2020,11,30,17,11,13.20
2020,11,30,17,12,8.70
2020,11,30,17,13,8.40
2020,11,30,17,14,9.40
2020,11,30,17,15,9.90
2020,11,30,17,16,14.80
2020,11,30,17,17,7.80
2020,11,30,17,18,9.00
2020,11,30,17,19,7.40
2020,11,30,17,20,5.90
2020,11,30,17,21,7.60
2020,11,30,17,22,8.30
2020,11,30,17,23,11.50
2020,11,30,17,24,5.20
2020,11,30,17,25,3.00
2020,11,30,17,26,14.10
2020,11,30,17,27,6.60
2020,11,30,17,28,6.40
2020,11,30,17,29,3.80
2020,11,30,17,30,3.60
2020,11,30,17,31,4.40
2020,11,30,17,32,5.30
2020,11,30,17,33,7.50
2020,11,30,17,34,9.50
2020,11,30,17,35,8.80
2020,11,30,17,36,8.40
2020,11,30,17,37,11.10
2020,11,30,17,38,6.80
2020,11,30,17,39,8.50
2020,11,30,17,40,4.80